Precipitable_Water
0.36 0.37 0.37 0.37 0.38 0.38 0.41 0.44 0.46 0.49 0.51 0.51 0.48 0.47 0.48 0.48 0.47 0.48 0.47 0.45 0.43 0.41 0.43 0.52 0.58 0.58 0.59 0.59 0.58 0.56 0.55 0.56 0.59 0.61 0.62 0.63 0.65 0.66 0.67 0.69 0.71 0.74 0.80 0.85 0.89 0.87 0.83 0.80 0.78 0.79 0.79 0.76 0.76 0.76 0.75 0.74 0.75 0.75 0.76 0.75 0.74 0.76 0.75 0.71 0.66 0.67 0.74 0.81 0.79 0.77 0.77 0.78 0.76 0.81 0.80 0.80 0.79 0.79 0.80 0.80 0.80 0.81 0.83 0.84 0.85
0.33 0.35 0.37 0.37 0.37 0.39 0.40 0.44 0.47 0.49 0.50 0.49 0.47 0.47 0.47 0.47 0.48 0.47 0.45 0.45 0.44 0.41 0.43 0.50 0.56 0.57 0.57 0.57 0.57 0.57 0.56 0.57 0.59 0.61 0.63 0.64 0.65 0.67 0.67 0.67 0.68 0.71 0.75 0.77 0.82 0.86 0.87 0.85 0.82 0.82 0.84 0.80 0.79 0.78 0.78 0.77 0.76 0.74 0.75 0.76 0.76 0.75 0.77 0.72 0.69 0.67 0.65 0.72 0.72 0.75 0.75 0.76 0.70 0.77 0.74 0.75 0.75 0.76 0.74 0.78 0.82 0.84 0.85 0.86 0.85
0.33 0.34 0.35 0.36 0.37 0.39 0.40 0.43 0.46 0.48 0.49 0.47 0.45 0.46 0.47 0.47 0.48 0.47 0.46 0.46 0.45 0.42 0.43 0.47 0.54 0.56 0.55 0.56 0.57 0.56 0.56 0.57 0.59 0.61 0.62 0.63 0.64 0.66 0.67 0.66 0.64 0.66 0.69 0.71 0.72 0.72 0.74 0.79 0.83 0.86 0.88 0.86 0.85 0.87 0.88 0.87 0.87 0.84 0.82 0.82 0.77 0.77 0.77 0.76 0.72 0.67 0.66 0.67 0.73 0.69 0.69 0.70 0.68 0.68 0.73 0.75 0.76 0.75 0.72 0.75 0.80 0.85 0.87 0.87 0.86
0.34 0.33 0.33 0.34 0.36 0.38 0.39 0.42 0.45 0.48 0.48 0.46 0.45 0.46 0.47 0.46 0.48 0.47 0.46 0.47 0.44 0.43 0.43 0.46 0.52 0.55 0.54 0.54 0.55 0.55 0.56 0.57 0.58 0.60 0.61 0.62 0.62 0.64 0.67 0.68 0.67 0.66 0.66 0.67 0.66 0.63 0.63 0.63 0.68 0.76 0.79 0.79 0.79 0.80 0.82 0.83 0.83 0.81 0.79 0.78 0.77 0.75 0.77 0.78 0.78 0.74 0.72 0.68 0.70 0.70 0.69 0.68 0.70 0.73 0.75 0.76 0.76 0.75 0.74 0.77 0.83 0.84 0.85 0.86 0.87
0.33 0.32 0.32 0.33 0.35 0.37 0.38 0.41 0.43 0.47 0.48 0.45 0.43 0.46 0.47 0.46 0.47 0.46 0.46 0.46 0.45 0.43 0.43 0.45 0.49 0.53 0.53 0.53 0.53 0.54 0.54 0.56 0.57 0.59 0.61 0.62 0.62 0.62 0.64 0.67 0.70 0.70 0.70 0.69 0.67 0.63 0.61 0.59 0.60 0.62 0.65 0.65 0.65 0.65 0.67 0.68 0.71 0.72 0.70 0.71 0.71 0.72 0.72 0.71 0.71 0.73 0.72 0.68 0.69 0.73 0.75 0.75 0.77 0.77 0.77 0.73 0.74 0.75 0.75 0.75 0.77 0.80 0.83 0.86 0.88
0.33 0.31 0.31 0.32 0.34 0.35 0.38 0.40 0.43 0.46 0.47 0.44 0.42 0.44 0.46 0.46 0.46 0.46 0.47 0.45 0.44 0.42 0.42 0.43 0.46 0.49 0.52 0.54 0.54 0.54 0.54 0.55 0.56 0.57 0.60 0.62 0.62 0.63 0.64 0.65 0.68 0.71 0.71 0.71 0.69 0.67 0.65 0.61 0.60 0.58 0.55 0.52 0.51 0.53 0.53 0.54 0.56 0.57 0.59 0.61 0.65 0.67 0.67 0.66 0.67 0.66 0.66 0.64 0.64 0.62 0.66 0.68 0.69 0.71 0.74 0.72 0.69 0.68 0.69 0.72 0.76 0.80 0.82 0.82 0.86
0.30 0.29 0.30 0.31 0.32 0.34 0.37 0.40 0.44 0.47 0.47 0.44 0.42 0.43 0.45 0.45 0.45 0.45 0.47 0.46 0.44 0.41 0.41 0.42 0.45 0.48 0.51 0.53 0.55 0.55 0.55 0.54 0.54 0.56 0.58 0.61 0.62 0.62 0.62 0.63 0.64 0.67 0.70 0.69 0.68 0.66 0.66 0.65 0.64 0.65 0.63 0.61 0.57 0.54 0.53 0.51 0.50 0.47 0.47 0.49 0.53 0.56 0.58 0.60 0.63 0.63 0.63 0.62 0.62 0.64 0.63 0.66 0.67 0.66 0.73 0.75 0.71 0.69 0.65 0.65 0.67 0.77 0.80 0.82 0.82
0.28 0.29 0.30 0.30 0.31 0.33 0.37 0.41 0.45 0.48 0.48 0.44 0.42 0.41 0.43 0.44 0.45 0.46 0.47 0.46 0.44 0.42 0.41 0.41 0.43 0.46 0.49 0.52 0.54 0.56 0.56 0.55 0.55 0.55 0.56 0.58 0.60 0.61 0.62 0.62 0.62 0.63 0.63 0.63 0.65 0.63 0.61 0.61 0.63 0.68 0.71 0.71 0.68 0.65 0.61 0.56 0.54 0.49 0.47 0.44 0.42 0.45 0.49 0.53 0.55 0.57 0.59 0.59 0.59 0.58 0.61 0.61 0.62 0.67 0.72 0.72 0.67 0.67 0.69 0.65 0.63 0.70 0.75 0.81 0.84
0.29 0.30 0.30 0.30 0.31 0.34 0.37 0.42 0.46 0.48 0.47 0.44 0.42 0.41 0.41 0.43 0.44 0.45 0.46 0.47 0.46 0.44 0.42 0.42 0.43 0.43 0.46 0.49 0.51 0.54 0.55 0.55 0.55 0.55 0.56 0.57 0.58 0.59 0.60 0.61 0.62 0.61 0.60 0.59 0.60 0.60 0.58 0.59 0.60 0.65 0.71 0.74 0.75 0.74 0.71 0.68 0.61 0.54 0.50 0.46 0.41 0.38 0.41 0.48 0.51 0.51 0.53 0.57 0.58 0.60 0.60 0.59 0.60 0.61 0.62 0.65 0.63 0.62 0.68 0.69 0.67 0.73 0.76 0.78 0.83
0.29 0.30 0.30 0.30 0.32 0.34 0.37 0.41 0.44 0.47 0.45 0.42 0.42 0.42 0.40 0.41 0.42 0.43 0.44 0.46 0.46 0.46 0.43 0.42 0.42 0.42 0.42 0.44 0.47 0.50 0.51 0.52 0.52 0.51 0.53 0.54 0.56 0.57 0.58 0.58 0.58 0.58 0.58 0.59 0.60 0.61 0.60 0.61 0.62 0.65 0.66 0.68 0.69 0.69 0.70 0.70 0.69 0.65 0.60 0.51 0.44 0.39 0.37 0.37 0.41 0.46 0.50 0.52 0.56 0.58 0.57 0.57 0.59 0.60 0.63 0.66 0.69 0.70 0.67 0.68 0.66 0.71 0.74 0.75 0.79
0.29 0.28 0.28 0.30 0.32 0.34 0.36 0.39 0.42 0.44 0.43 0.42 0.42 0.41 0.40 0.40 0.40 0.41 0.43 0.44 0.44 0.43 0.43 0.40 0.40 0.42 0.43 0.42 0.42 0.43 0.45 0.47 0.48 0.46 0.47 0.50 0.52 0.53 0.54 0.54 0.55 0.55 0.54 0.55 0.56 0.58 0.61 0.64 0.66 0.67 0.67 0.66 0.65 0.64 0.64 0.65 0.66 0.67 0.67 0.61 0.54 0.47 0.42 0.40 0.40 0.44 0.45 0.49 0.54 0.57 0.57 0.55 0.56 0.59 0.63 0.67 0.67 0.67 0.66 0.67 0.66 0.66 0.65 0.65 0.66
0.29 0.29 0.30 0.31 0.31 0.33 0.36 0.38 0.40 0.41 0.41 0.40 0.41 0.41 0.40 0.38 0.38 0.39 0.40 0.41 0.41 0.42 0.40 0.40 0.40 0.41 0.42 0.43 0.43 0.43 0.44 0.46 0.46 0.44 0.42 0.44 0.49 0.50 0.52 0.52 0.53 0.52 0.52 0.52 0.54 0.54 0.55 0.60 0.64 0.65 0.65 0.65 0.64 0.62 0.61 0.60 0.59 0.60 0.64 0.67 0.61 0.55 0.52 0.48 0.43 0.42 0.46 0.48 0.51 0.53 0.54 0.52 0.53 0.57 0.59 0.64 0.67 0.67 0.68 0.68 0.67 0.66 0.64 0.66 0.70
0.30 0.30 0.31 0.31 0.30 0.32 0.35 0.37 0.39 0.39 0.39 0.40 0.40 0.40 0.39 0.37 0.36 0.36 0.37 0.40 0.39 0.37 0.39 0.40 0.39 0.40 0.41 0.42 0.42 0.43 0.44 0.46 0.46 0.45 0.44 0.43 0.44 0.46 0.47 0.49 0.50 0.50 0.51 0.51 0.52 0.53 0.54 0.55 0.58 0.60 0.61 0.60 0.57 0.58 0.57 0.56 0.56 0.56 0.56 0.61 0.63 0.61 0.57 0.53 0.52 0.51 0.50 0.48 0.49 0.49 0.52 0.52 0.52 0.54 0.60 0.63 0.70 0.64 0.66 0.66 0.68 0.69 0.69 0.68 0.72
0.30 0.29 0.29 0.30 0.30 0.32 0.34 0.36 0.37 0.39 0.39 0.39 0.39 0.38 0.38 0.37 0.37 0.37 0.36 0.36 0.35 0.36 0.37 0.37 0.39 0.39 0.39 0.40 0.41 0.43 0.43 0.45 0.46 0.45 0.44 0.44 0.44 0.44 0.43 0.44 0.46 0.48 0.49 0.51 0.52 0.52 0.53 0.52 0.54 0.54 0.56 0.54 0.54 0.55 0.55 0.54 0.54 0.53 0.52 0.54 0.55 0.56 0.56 0.56 0.53 0.52 0.52 0.50 0.48 0.46 0.50 0.54 0.51 0.53 0.60 0.67 0.65 0.62 0.63 0.65 0.69 0.68 0.69 0.71 0.78
0.29 0.29 0.29 0.30 0.31 0.33 0.34 0.35 0.36 0.38 0.38 0.38 0.37 0.37 0.37 0.37 0.37 0.37 0.36 0.34 0.33 0.33 0.34 0.35 0.36 0.38 0.39 0.40 0.41 0.42 0.43 0.44 0.44 0.44 0.44 0.43 0.43 0.44 0.43 0.42 0.42 0.43 0.46 0.49 0.51 0.52 0.52 0.52 0.53 0.53 0.53 0.51 0.51 0.53 0.52 0.53 0.52 0.50 0.49 0.50 0.51 0.52 0.51 0.51 0.51 0.53 0.55 0.53 0.51 0.50 0.50 0.51 0.52 0.56 0.62 0.68 0.68 0.68 0.68 0.68 0.72 0.71 0.74 0.80 0.80
0.29 0.29 0.29 0.30 0.31 0.33 0.33 0.34 0.35 0.37 0.37 0.37 0.36 0.37 0.38 0.37 0.36 0.37 0.37 0.36 0.34 0.34 0.34 0.35 0.35 0.36 0.38 0.39 0.40 0.40 0.42 0.44 0.43 0.43 0.42 0.41 0.42 0.42 0.42 0.41 0.40 0.40 0.41 0.43 0.46 0.49 0.51 0.52 0.52 0.51 0.51 0.50 0.50 0.50 0.51 0.52 0.49 0.47 0.47 0.48 0.49 0.50 0.50 0.54 0.54 0.54 0.56 0.57 0.56 0.55 0.54 0.54 0.54 0.57 0.64 0.68 0.70 0.71 0.72 0.75 0.76 0.73 0.71 0.68 0.67
0.29 0.29 0.30 0.31 0.31 0.33 0.34 0.34 0.34 0.36 0.37 0.36 0.36 0.37 0.37 0.38 0.38 0.37 0.35 0.35 0.33 0.31 0.31 0.33 0.35 0.36 0.36 0.37 0.37 0.38 0.40 0.42 0.43 0.42 0.41 0.41 0.40 0.40 0.40 0.40 0.40 0.40 0.40 0.41 0.42 0.44 0.47 0.49 0.49 0.50 0.51 0.50 0.51 0.51 0.51 0.51 0.48 0.45 0.45 0.45 0.46 0.46 0.46 0.51 0.53 0.54 0.56 0.58 0.61 0.63 0.60 0.57 0.59 0.64 0.68 0.71 0.70 0.73 0.72 0.68 0.65 0.69 0.64 0.63 0.66
0.29 0.30 0.30 0.32 0.32 0.34 0.35 0.35 0.33 0.34 0.35 0.35 0.36 0.37 0.38 0.38 0.37 0.36 0.33 0.33 0.31 0.31 0.30 0.31 0.33 0.35 0.35 0.35 0.37 0.36 0.37 0.40 0.41 0.41 0.40 0.40 0.39 0.38 0.38 0.37 0.37 0.38 0.38 0.40 0.42 0.43 0.45 0.47 0.48 0.49 0.49 0.50 0.52 0.53 0.54 0.52 0.47 0.45 0.44 0.42 0.42 0.43 0.44 0.48 0.49 0.51 0.56 0.59 0.61 0.63 0.63 0.62 0.61 0.63 0.65 0.66 0.68 0.69 0.66 0.59 0.65 0.67 0.63 0.64 0.62
0.29 0.30 0.31 0.34 0.35 0.35 0.35 0.35 0.33 0.34 0.34 0.35 0.36 0.36 0.37 0.37 0.36 0.35 0.34 0.33 0.32 0.31 0.30 0.29 0.31 0.33 0.36 0.37 0.38 0.37 0.37 0.38 0.39 0.39 0.38 0.38 0.38 0.37 0.37 0.35 0.34 0.35 0.35 0.36 0.38 0.40 0.42 0.44 0.46 0.47 0.47 0.49 0.50 0.52 0.53 0.51 0.47 0.45 0.44 0.42 0.40 0.41 0.45 0.47 0.45 0.46 0.49 0.55 0.59 0.61 0.60 0.63 0.65 0.64 0.63 0.64 0.65 0.66 0.67 0.67 0.70 0.67 0.62 0.63 0.65
0.30 0.32 0.34 0.35 0.35 0.35 0.35 0.34 0.33 0.33 0.33 0.34 0.35 0.35 0.36 0.36 0.35 0.32 0.32 0.33 0.32 0.30 0.29 0.29 0.29 0.32 0.35 0.37 0.37 0.38 0.37 0.37 0.37 0.37 0.37 0.36 0.36 0.36 0.35 0.34 0.32 0.32 0.33 0.33 0.34 0.35 0.38 0.39 0.41 0.43 0.44 0.45 0.46 0.46 0.47 0.47 0.46 0.46 0.46 0.43 0.41 0.40 0.48 0.49 0.48 0.47 0.48 0.53 0.56 0.58 0.58 0.62 0.66 0.67 0.66 0.65 0.66 0.68 0.68 0.70 0.72 0.72 0.68 0.67 0.68
0.31 0.34 0.35 0.35 0.35 0.36 0.36 0.35 0.32 0.32 0.33 0.31 0.31 0.32 0.32 0.31 0.31 0.30 0.30 0.31 0.30 0.29 0.27 0.26 0.27 0.29 0.33 0.35 0.36 0.37 0.38 0.36 0.36 0.36 0.36 0.36 0.36 0.36 0.34 0.33 0.32 0.31 0.31 0.31 0.32 0.32 0.34 0.36 0.38 0.40 0.41 0.42 0.43 0.43 0.44 0.44 0.45 0.45 0.45 0.43 0.43 0.46 0.49 0.48 0.48 0.48 0.48 0.52 0.55 0.56 0.57 0.59 0.63 0.66 0.66 0.67 0.67 0.68 0.70 0.73 0.75 0.75 0.73 0.70 0.69
0.33 0.34 0.35 0.36 0.36 0.36 0.36 0.35 0.33 0.32 0.33 0.32 0.31 0.31 0.32 0.33 0.31 0.30 0.29 0.29 0.27 0.26 0.25 0.24 0.24 0.27 0.30 0.33 0.34 0.34 0.35 0.36 0.35 0.34 0.34 0.33 0.33 0.33 0.32 0.32 0.32 0.30 0.30 0.29 0.29 0.29 0.30 0.32 0.35 0.37 0.39 0.40 0.41 0.41 0.42 0.42 0.42 0.41 0.41 0.43 0.46 0.47 0.47 0.48 0.49 0.49 0.49 0.52 0.52 0.53 0.54 0.54 0.54 0.58 0.62 0.64 0.67 0.70 0.72 0.73 0.75 0.76 0.78 0.79 0.76
0.33 0.34 0.36 0.36 0.36 0.36 0.36 0.34 0.32 0.32 0.32 0.33 0.33 0.33 0.34 0.33 0.32 0.32 0.30 0.29 0.28 0.26 0.24 0.24 0.24 0.25 0.27 0.30 0.32 0.33 0.33 0.33 0.34 0.33 0.32 0.32 0.31 0.30 0.29 0.29 0.30 0.29 0.26 0.25 0.24 0.25 0.27 0.28 0.31 0.34 0.36 0.37 0.38 0.38 0.39 0.39 0.38 0.38 0.39 0.42 0.45 0.46 0.47 0.46 0.46 0.46 0.48 0.49 0.51 0.50 0.51 0.50 0.49 0.50 0.55 0.60 0.65 0.70 0.72 0.73 0.74 0.76 0.79 0.83 0.87
0.34 0.35 0.36 0.36 0.36 0.35 0.35 0.34 0.32 0.33 0.34 0.36 0.36 0.35 0.35 0.35 0.34 0.33 0.31 0.29 0.28 0.26 0.24 0.24 0.24 0.25 0.26 0.27 0.29 0.31 0.32 0.32 0.32 0.33 0.32 0.31 0.30 0.29 0.28 0.27 0.27 0.27 0.26 0.25 0.25 0.25 0.26 0.27 0.29 0.31 0.32 0.33 0.33 0.34 0.36 0.37 0.37 0.39 0.40 0.42 0.43 0.44 0.45 0.44 0.43 0.43 0.45 0.48 0.48 0.49 0.50 0.50 0.50 0.49 0.52 0.58 0.64 0.69 0.71 0.73 0.71 0.74 0.79 0.84 0.88
0.35 0.36 0.37 0.36 0.35 0.35 0.36 0.35 0.35 0.35 0.36 0.36 0.34 0.34 0.35 0.35 0.33 0.33 0.31 0.30 0.28 0.27 0.26 0.25 0.25 0.26 0.27 0.27 0.27 0.29 0.30 0.31 0.31 0.31 0.31 0.31 0.30 0.29 0.28 0.27 0.26 0.26 0.25 0.25 0.25 0.25 0.26 0.27 0.28 0.30 0.30 0.31 0.32 0.35 0.37 0.38 0.39 0.40 0.40 0.40 0.42 0.42 0.43 0.43 0.42 0.40 0.39 0.42 0.45 0.47 0.49 0.51 0.51 0.50 0.53 0.55 0.59 0.62 0.64 0.68 0.69 0.72 0.78 0.83 0.88
0.35 0.37 0.37 0.35 0.35 0.36 0.36 0.36 0.36 0.37 0.37 0.39 0.38 0.37 0.35 0.35 0.33 0.33 0.31 0.30 0.29 0.28 0.27 0.26 0.26 0.27 0.28 0.28 0.29 0.29 0.30 0.29 0.29 0.29 0.30 0.29 0.28 0.27 0.27 0.26 0.26 0.25 0.25 0.24 0.24 0.24 0.24 0.24 0.25 0.27 0.29 0.30 0.31 0.33 0.35 0.37 0.39 0.40 0.41 0.41 0.40 0.41 0.42 0.43 0.43 0.40 0.37 0.39 0.42 0.44 0.47 0.51 0.51 0.51 0.53 0.54 0.52 0.52 0.55 0.58 0.60 0.63 0.72 0.77 0.80
0.35 0.37 0.35 0.34 0.36 0.37 0.36 0.36 0.37 0.38 0.39 0.39 0.39 0.38 0.37 0.36 0.35 0.33 0.32 0.30 0.29 0.29 0.28 0.25 0.25 0.27 0.28 0.28 0.29 0.30 0.30 0.30 0.29 0.29 0.29 0.28 0.27 0.26 0.25 0.24 0.23 0.23 0.23 0.23 0.23 0.23 0.23 0.22 0.22 0.24 0.25 0.27 0.28 0.30 0.33 0.36 0.39 0.40 0.40 0.40 0.40 0.40 0.41 0.43 0.43 0.42 0.41 0.39 0.40 0.44 0.48 0.52 0.56 0.53 0.50 0.51 0.51 0.52 0.53 0.54 0.54 0.56 0.64 0.71 0.75
0.35 0.36 0.35 0.35 0.36 0.37 0.37 0.38 0.38 0.38 0.39 0.39 0.38 0.37 0.37 0.36 0.35 0.34 0.33 0.32 0.31 0.30 0.29 0.26 0.25 0.26 0.27 0.28 0.28 0.29 0.29 0.30 0.30 0.30 0.29 0.28 0.27 0.26 0.25 0.23 0.21 0.20 0.19 0.19 0.20 0.21 0.20 0.19 0.19 0.20 0.23 0.25 0.26 0.28 0.29 0.31 0.33 0.36 0.38 0.39 0.40 0.40 0.41 0.43 0.44 0.44 0.44 0.43 0.41 0.42 0.45 0.49 0.51 0.51 0.49 0.48 0.48 0.51 0.56 0.56 0.56 0.54 0.55 0.60 0.67
0.35 0.36 0.36 0.36 0.36 0.38 0.38 0.38 0.38 0.38 0.38 0.39 0.40 0.40 0.38 0.37 0.36 0.34 0.35 0.35 0.34 0.33 0.30 0.28 0.27 0.28 0.28 0.28 0.28 0.28 0.28 0.28 0.30 0.32 0.31 0.30 0.28 0.26 0.24 0.23 0.21 0.20 0.20 0.19 0.18 0.18 0.17 0.17 0.16 0.17 0.17 0.19 0.20 0.22 0.24 0.26 0.28 0.31 0.34 0.37 0.38 0.39 0.39 0.39 0.39 0.40 0.42 0.43 0.42 0.41 0.41 0.44 0.45 0.49 0.48 0.48 0.46 0.47 0.52 0.55 0.55 0.53 0.52 0.52 0.56
0.34 0.35 0.36 0.36 0.36 0.37 0.37 0.38 0.38 0.38 0.39 0.38 0.38 0.38 0.40 0.40 0.38 0.34 0.31 0.32 0.33 0.34 0.34 0.28 0.28 0.29 0.29 0.29 0.30 0.28 0.28 0.29 0.32 0.32 0.32 0.30 0.28 0.27 0.26 0.25 0.24 0.22 0.21 0.20 0.19 0.17 0.16 0.15 0.15 0.14 0.14 0.14 0.15 0.17 0.18 0.21 0.24 0.27 0.30 0.33 0.36 0.37 0.38 0.39 0.39 0.40 0.41 0.41 0.43 0.43 0.42 0.43 0.42 0.45 0.46 0.45 0.46 0.46 0.49 0.49 0.49 0.50 0.47 0.48 0.49
0.33 0.35 0.36 0.36 0.36 0.36 0.36 0.36 0.37 0.38 0.38 0.38 0.37 0.34 0.34 0.35 0.34 0.33 0.31 0.30 0.30 0.29 0.29 0.28 0.29 0.29 0.30 0.29 0.30 0.30 0.30 0.31 0.32 0.32 0.32 0.31 0.29 0.28 0.27 0.26 0.25 0.24 0.23 0.20 0.18 0.17 0.16 0.15 0.15 0.14 0.14 0.14 0.14 0.15 0.16 0.16 0.18 0.21 0.25 0.28 0.31 0.33 0.35 0.36 0.38 0.40 0.40 0.41 0.42 0.43 0.44 0.44 0.43 0.45 0.46 0.46 0.48 0.47 0.47 0.46 0.45 0.43 0.42 0.46 0.48
0.31 0.33 0.36 0.37 0.37 0.37 0.36 0.36 0.36 0.36 0.36 0.36 0.35 0.32 0.31 0.30 0.30 0.31 0.31 0.30 0.30 0.29 0.29 0.29 0.29 0.30 0.31 0.32 0.31 0.30 0.31 0.32 0.32 0.32 0.32 0.32 0.31 0.30 0.29 0.28 0.27 0.26 0.24 0.22 0.19 0.18 0.17 0.16 0.15 0.15 0.14 0.14 0.14 0.15 0.15 0.16 0.17 0.18 0.20 0.21 0.24 0.28 0.30 0.31 0.34 0.37 0.39 0.40 0.40 0.41 0.42 0.43 0.44 0.45 0.46 0.47 0.47 0.47 0.45 0.43 0.44 0.42 0.41 0.43 0.47
0.30 0.33 0.36 0.37 0.37 0.37 0.36 0.36 0.35 0.35 0.35 0.34 0.32 0.31 0.29 0.28 0.28 0.28 0.29 0.31 0.30 0.29 0.28 0.28 0.28 0.29 0.30 0.31 0.32 0.32 0.33 0.34 0.34 0.32 0.32 0.31 0.31 0.31 0.30 0.30 0.28 0.27 0.25 0.22 0.19 0.18 0.18 0.17 0.16 0.16 0.15 0.14 0.14 0.15 0.16 0.17 0.17 0.18 0.18 0.19 0.19 0.22 0.24 0.27 0.31 0.33 0.35 0.37 0.39 0.39 0.41 0.42 0.44 0.45 0.46 0.47 0.48 0.45 0.45 0.43 0.44 0.44 0.42 0.40 0.41
0.32 0.32 0.34 0.36 0.37 0.36 0.36 0.35 0.34 0.34 0.35 0.33 0.31 0.29 0.29 0.28 0.28 0.27 0.27 0.27 0.27 0.28 0.28 0.28 0.27 0.28 0.29 0.31 0.32 0.34 0.35 0.36 0.34 0.32 0.31 0.30 0.30 0.30 0.30 0.29 0.29 0.27 0.25 0.22 0.21 0.20 0.19 0.18 0.17 0.16 0.16 0.15 0.15 0.15 0.16 0.17 0.18 0.18 0.18 0.19 0.20 0.21 0.22 0.25 0.26 0.27 0.29 0.32 0.34 0.37 0.39 0.40 0.41 0.42 0.44 0.45 0.46 0.47 0.45 0.44 0.44 0.42 0.40 0.40 0.39
0.38 0.35 0.34 0.35 0.35 0.35 0.36 0.35 0.34 0.34 0.34 0.31 0.29 0.29 0.28 0.28 0.28 0.27 0.26 0.26 0.26 0.26 0.26 0.26 0.27 0.27 0.29 0.31 0.33 0.35 0.36 0.36 0.34 0.32 0.31 0.30 0.30 0.29 0.28 0.27 0.26 0.26 0.25 0.25 0.24 0.22 0.21 0.20 0.19 0.18 0.17 0.16 0.16 0.15 0.16 0.17 0.18 0.18 0.18 0.18 0.19 0.20 0.20 0.21 0.21 0.22 0.23 0.25 0.28 0.31 0.35 0.37 0.39 0.39 0.40 0.42 0.44 0.46 0.47 0.47 0.45 0.43 0.41 0.40 0.40
0.51 0.44 0.40 0.37 0.35 0.34 0.34 0.34 0.34 0.34 0.33 0.30 0.29 0.29 0.28 0.28 0.27 0.27 0.27 0.27 0.27 0.26 0.26 0.26 0.25 0.27 0.31 0.33 0.34 0.35 0.36 0.37 0.35 0.33 0.32 0.31 0.31 0.29 0.26 0.25 0.24 0.25 0.25 0.25 0.24 0.24 0.24 0.23 0.21 0.20 0.19 0.18 0.17 0.16 0.16 0.17 0.18 0.18 0.19 0.18 0.18 0.19 0.19 0.19 0.19 0.19 0.19 0.19 0.20 0.22 0.26 0.31 0.35 0.36 0.37 0.38 0.40 0.42 0.45 0.48 0.49 0.49 0.46 0.42 0.41
0.65 0.57 0.52 0.46 0.40 0.36 0.33 0.32 0.32 0.32 0.31 0.28 0.28 0.28 0.27 0.27 0.27 0.27 0.28 0.28 0.28 0.27 0.26 0.26 0.27 0.30 0.33 0.33 0.35 0.36 0.37 0.37 0.34 0.33 0.32 0.32 0.32 0.30 0.27 0.26 0.25 0.25 0.25 0.26 0.26 0.25 0.25 0.24 0.23 0.22 0.21 0.19 0.18 0.17 0.17 0.17 0.18 0.18 0.18 0.19 0.19 0.19 0.19 0.19 0.18 0.18 0.18 0.17 0.17 0.17 0.18 0.20 0.24 0.28 0.30 0.30 0.33 0.36 0.39 0.43 0.47 0.50 0.51 0.49 0.47
0.77 0.69 0.62 0.55 0.49 0.43 0.38 0.34 0.33 0.32 0.29 0.26 0.26 0.26 0.26 0.27 0.27 0.28 0.29 0.29 0.29 0.27 0.27 0.28 0.31 0.32 0.32 0.33 0.37 0.37 0.38 0.37 0.34 0.33 0.32 0.32 0.30 0.29 0.27 0.26 0.25 0.25 0.25 0.25 0.25 0.25 0.24 0.24 0.24 0.23 0.22 0.21 0.19 0.18 0.18 0.18 0.18 0.18 0.18 0.19 0.19 0.19 0.19 0.19 0.18 0.18 0.18 0.17 0.17 0.17 0.16 0.16 0.17 0.19 0.22 0.25 0.26 0.28 0.31 0.34 0.37 0.41 0.47 0.50 0.51
0.86 0.78 0.70 0.64 0.55 0.48 0.42 0.39 0.37 0.35 0.31 0.28 0.27 0.27 0.28 0.29 0.30 0.32 0.32 0.31 0.30 0.29 0.31 0.32 0.33 0.34 0.35 0.36 0.37 0.39 0.37 0.35 0.33 0.31 0.31 0.30 0.30 0.29 0.27 0.26 0.25 0.24 0.24 0.24 0.24 0.23 0.23 0.23 0.23 0.23 0.22 0.21 0.20 0.19 0.19 0.19 0.19 0.19 0.19 0.19 0.19 0.19 0.19 0.18 0.18 0.17 0.17 0.17 0.18 0.17 0.17 0.16 0.16 0.16 0.16 0.18 0.20 0.23 0.26 0.29 0.31 0.34 0.36 0.41 0.46
0.85 0.87 0.78 0.65 0.57 0.54 0.48 0.44 0.42 0.40 0.35 0.32 0.32 0.33 0.33 0.34 0.35 0.35 0.34 0.33 0.32 0.33 0.35 0.36 0.36 0.37 0.38 0.39 0.38 0.38 0.37 0.35 0.34 0.32 0.30 0.28 0.27 0.26 0.24 0.23 0.22 0.22 0.21 0.22 0.23 0.23 0.23 0.22 0.21 0.20 0.20 0.19 0.18 0.18 0.19 0.19 0.20 0.20 0.20 0.19 0.18 0.18 0.18 0.18 0.18 0.17 0.17 0.18 0.18 0.17 0.17 0.16 0.16 0.16 0.16 0.16 0.17 0.19 0.20 0.22 0.26 0.29 0.32 0.34 0.37
0.89 0.84 0.75 0.67 0.65 0.61 0.56 0.52 0.49 0.46 0.42 0.39 0.39 0.39 0.39 0.40 0.39 0.39 0.39 0.37 0.37 0.39 0.40 0.40 0.39 0.39 0.40 0.41 0.40 0.41 0.40 0.37 0.33 0.31 0.28 0.26 0.25 0.23 0.23 0.22 0.21 0.21 0.21 0.21 0.22 0.22 0.22 0.21 0.21 0.20 0.20 0.19 0.19 0.18 0.19 0.20 0.20 0.20 0.20 0.19 0.18 0.18 0.18 0.18 0.18 0.17 0.17 0.18 0.18 0.17 0.17 0.17 0.16 0.15 0.15 0.16 0.18 0.18 0.19 0.20 0.21 0.23 0.27 0.30 0.32
0.90 0.81 0.74 0.72 0.70 0.63 0.59 0.56 0.55 0.53 0.50 0.48 0.48 0.47 0.46 0.44 0.43 0.42 0.43 0.44 0.44 0.44 0.43 0.39 0.39 0.41 0.42 0.41 0.41 0.43 0.41 0.36 0.32 0.29 0.27 0.26 0.25 0.23 0.23 0.22 0.22 0.21 0.21 0.21 0.21 0.21 0.22 0.21 0.21 0.20 0.20 0.19 0.19 0.19 0.19 0.20 0.21 0.20 0.20 0.19 0.18 0.17 0.17 0.17 0.17 0.17 0.17 0.18 0.18 0.18 0.17 0.17 0.16 0.16 0.16 0.17 0.16 0.17 0.17 0.18 0.18 0.19 0.21 0.24 0.28
0.90 0.80 0.73 0.71 0.67 0.65 0.64 0.62 0.60 0.59 0.57 0.56 0.56 0.55 0.54 0.50 0.49 0.48 0.48 0.51 0.52 0.48 0.41 0.38 0.40 0.41 0.40 0.40 0.42 0.43 0.38 0.33 0.29 0.28 0.27 0.26 0.25 0.23 0.23 0.22 0.23 0.23 0.23 0.23 0.24 0.24 0.24 0.24 0.23 0.22 0.20 0.20 0.20 0.20 0.20 0.21 0.22 0.21 0.20 0.19 0.18 0.17 0.17 0.16 0.16 0.17 0.18 0.18 0.18 0.18 0.17 0.17 0.16 0.16 0.16 0.16 0.16 0.16 0.16 0.16 0.17 0.18 0.19 0.21 0.23
0.89 0.79 0.72 0.71 0.70 0.68 0.67 0.66 0.65 0.64 0.62 0.62 0.62 0.61 0.59 0.57 0.58 0.58 0.55 0.53 0.51 0.48 0.45 0.42 0.40 0.40 0.42 0.42 0.42 0.40 0.34 0.30 0.28 0.27 0.27 0.26 0.25 0.23 0.23 0.23 0.24 0.25 0.25 0.26 0.26 0.27 0.27 0.26 0.25 0.24 0.23 0.23 0.24 0.25 0.26 0.25 0.25 0.23 0.21 0.20 0.19 0.18 0.18 0.17 0.16 0.16 0.17 0.18 0.18 0.18 0.17 0.16 0.16 0.16 0.16 0.16 0.16 0.15 0.15 0.15 0.16 0.16 0.17 0.19 0.21
0.86 0.79 0.73 0.72 0.72 0.71 0.71 0.69 0.67 0.67 0.67 0.67 0.66 0.66 0.65 0.65 0.63 0.62 0.58 0.55 0.52 0.49 0.48 0.45 0.43 0.43 0.44 0.41 0.38 0.35 0.32 0.29 0.28 0.28 0.27 0.26 0.24 0.23 0.24 0.25 0.26 0.26 0.27 0.28 0.29 0.29 0.28 0.28 0.27 0.26 0.25 0.25 0.25 0.26 0.27 0.27 0.27 0.26 0.26 0.24 0.21 0.19 0.19 0.18 0.17 0.17 0.17 0.17 0.17 0.17 0.17 0.16 0.15 0.15 0.15 0.16 0.16 0.15 0.15 0.15 0.15 0.16 0.16 0.17 0.18
0.83 0.79 0.75 0.73 0.73 0.73 0.71 0.70 0.69 0.72 0.74 0.73 0.70 0.66 0.65 0.65 0.63 0.60 0.58 0.56 0.53 0.50 0.47 0.46 0.46 0.45 0.43 0.39 0.35 0.32 0.30 0.29 0.28 0.27 0.27 0.26 0.25 0.25 0.25 0.26 0.27 0.28 0.29 0.30 0.31 0.30 0.29 0.29 0.28 0.26 0.24 0.23 0.22 0.22 0.24 0.25 0.27 0.27 0.27 0.26 0.25 0.23 0.21 0.20 0.19 0.18 0.17 0.17 0.17 0.18 0.17 0.16 0.15 0.15 0.16 0.16 0.15 0.15 0.15 0.15 0.15 0.15 0.16 0.16 0.17
0.83 0.80 0.77 0.75 0.75 0.75 0.73 0.73 0.73 0.76 0.76 0.73 0.68 0.65 0.62 0.60 0.61 0.60 0.59 0.56 0.53 0.50 0.47 0.45 0.44 0.42 0.41 0.37 0.33 0.31 0.30 0.29 0.27 0.26 0.27 0.27 0.26 0.26 0.26 0.27 0.28 0.29 0.31 0.32 0.33 0.31 0.30 0.29 0.27 0.26 0.24 0.23 0.22 0.21 0.22 0.23 0.25 0.26 0.27 0.26 0.26 0.25 0.24 0.22 0.20 0.18 0.18 0.18 0.18 0.18 0.18 0.17 0.15 0.15 0.15 0.16 0.15 0.15 0.15 0.15 0.15 0.15 0.15 0.16 0.16
0.84 0.83 0.81 0.80 0.78 0.76 0.76 0.76 0.74 0.73 0.72 0.69 0.66 0.63 0.62 0.61 0.60 0.58 0.56 0.54 0.52 0.50 0.47 0.44 0.41 0.40 0.39 0.37 0.35 0.32 0.30 0.29 0.27 0.27 0.27 0.28 0.27 0.27 0.27 0.28 0.28 0.29 0.30 0.31 0.33 0.33 0.31 0.29 0.28 0.27 0.25 0.23 0.22 0.22 0.23 0.24 0.25 0.26 0.27 0.27 0.26 0.26 0.25 0.23 0.21 0.20 0.19 0.19 0.19 0.19 0.18 0.17 0.16 0.15 0.15 0.15 0.15 0.15 0.15 0.15 0.15 0.15 0.15 0.15 0.16
0.88 0.85 0.83 0.82 0.80 0.79 0.77 0.74 0.73 0.73 0.71 0.67 0.65 0.63 0.63 0.61 0.58 0.55 0.53 0.52 0.51 0.48 0.44 0.41 0.40 0.39 0.38 0.37 0.35 0.33 0.31 0.29 0.28 0.27 0.28 0.28 0.28 0.28 0.28 0.28 0.29 0.30 0.30 0.30 0.31 0.32 0.32 0.31 0.29 0.28 0.26 0.23 0.23 0.23 0.23 0.25 0.27 0.27 0.27 0.27 0.27 0.26 0.25 0.24 0.22 0.20 0.20 0.19 0.19 0.19 0.19 0.18 0.17 0.15 0.15 0.15 0.15 0.15 0.16 0.16 0.16 0.15 0.15 0.15 0.14
0.87 0.85 0.84 0.83 0.81 0.79 0.76 0.72 0.70 0.70 0.69 0.67 0.65 0.64 0.63 0.60 0.56 0.53 0.52 0.50 0.48 0.45 0.41 0.40 0.39 0.38 0.37 0.36 0.34 0.33 0.31 0.30 0.29 0.28 0.28 0.28 0.28 0.28 0.29 0.29 0.30 0.31 0.31 0.31 0.32 0.32 0.33 0.32 0.30 0.28 0.26 0.24 0.24 0.24 0.25 0.26 0.28 0.29 0.29 0.29 0.28 0.27 0.26 0.25 0.24 0.22 0.21 0.20 0.20 0.20 0.20 0.19 0.18 0.17 0.15 0.15 0.15 0.15 0.15 0.16 0.16 0.16 0.15 0.15 0.14
0.84 0.82 0.81 0.81 0.80 0.77 0.74 0.71 0.69 0.69 0.69 0.68 0.67 0.64 0.60 0.57 0.54 0.52 0.50 0.48 0.44 0.41 0.39 0.39 0.38 0.38 0.36 0.35 0.34 0.34 0.33 0.32 0.30 0.30 0.29 0.29 0.29 0.29 0.29 0.29 0.30 0.30 0.31 0.31 0.32 0.33 0.33 0.33 0.32 0.30 0.27 0.25 0.24 0.25 0.26 0.27 0.29 0.31 0.32 0.31 0.30 0.28 0.27 0.26 0.24 0.24 0.23 0.21 0.20 0.20 0.20 0.20 0.19 0.18 0.17 0.15 0.15 0.15 0.15 0.16 0.16 0.16 0.16 0.15 0.15
Wind_Speed
11 12 13 14 16 17 18 19 20 21 21 20 20 20 21 21 21 22 23 24 23 23 22 22 22 23 23 23 23 23 24 26 27 28 30 30 31 31 30 29 29 30 29 29 28 27 26 26 25 24 23 22 22 21 20 20 19 18 17 15 15 15 14 15 14 14 13 13 12 12 12 12 12 12 12 12 11 11 11 12 12 12 11 11 11
10 11 13 14 15 17 18 18 19 21 21 20 19 20 20 21 21 22 23 23 23 22 22 22 22 22 22 22 23 23 23 24 25 26 28 29 30 30 30 29 29 29 29 29 28 27 26 25 24 22 21 21 21 20 20 19 19 18 17 16 15 14 14 14 14 13 12 12 12 11 11 11 11 11 11 11 11 11 11 10 10 11 10 10 10
9 11 12 13 15 16 17 18 19 20 21 20 19 19 20 20 20 21 22 23 23 22 21 21 21 21 21 22 22 22 22 22 23 25 26 27 28 29 29 29 28 28 28 28 28 27 26 26 24 23 22 21 21 20 20 19 19 18 18 17 16 16 14 13 13 13 12 11 11 11 10 10 10 10 10 10 10 10 9 9 9 10 10 10 9
9 10 11 13 14 15 16 17 19 20 20 20 19 18 19 20 20 21 22 22 22 22 21 21 21 20 20 21 21 21 21 21 22 23 24 25 26 27 28 29 28 28 27 27 27 26 26 25 25 24 23 22 21 20 20 19 18 18 17 17 17 17 16 15 14 13 13 12 12 12 11 11 11 10 9 9 9 9 8 8 8 9 9 9 9
9 10 11 12 14 15 15 16 18 19 19 19 18 18 18 19 20 20 21 22 21 21 21 21 20 20 20 20 20 21 21 21 21 21 22 23 24 25 26 27 27 27 26 26 25 25 25 25 24 24 23 22 21 21 20 19 18 18 17 17 16 16 16 16 15 14 13 13 13 12 12 11 11 10 9 8 9 8 8 7 7 8 8 8 8
8 9 10 11 13 14 15 16 18 18 19 19 18 17 18 18 19 20 20 21 21 21 21 20 20 20 20 19 20 20 20 20 20 20 21 21 22 23 24 25 25 26 25 25 24 24 24 24 24 24 23 23 22 21 20 20 19 18 17 16 16 15 15 15 14 14 13 13 13 12 12 11 11 10 8 8 8 8 7 7 6 7 7 7 8
8 8 9 11 12 13 14 15 17 17 18 18 18 17 17 17 18 19 20 20 21 21 20 20 20 20 19 19 19 19 19 20 20 20 20 20 20 21 22 23 23 24 24 24 23 23 22 22 22 22 22 22 21 21 21 20 19 19 18 16 15 14 14 13 13 13 12 12 12 11 11 11 11 10 9 8 8 7 7 6 6 6 6 7 7
7 8 9 10 11 12 13 15 16 16 17 17 18 18 17 17 18 19 19 20 20 20 20 19 19 19 19 19 19 19 19 19 20 20 19 19 19 20 20 21 22 22 22 23 23 22 22 21 21 20 20 20 20 20 20 19 19 19 18 17 16 14 13 12 12 12 11 11 10 10 10 10 11 10 9 8 7 7 6 6 5 5 5 6 6
6 7 8 9 11 11 13 14 15 16 16 17 17 18 18 17 17 19 19 19 19 20 20 19 19 19 19 18 18 18 19 19 19 19 19 19 18 19 19 19 20 21 21 21 22 22 22 21 20 20 20 19 19 19 19 18 18 17 17 17 16 15 13 12 11 11 10 10 9 9 9 9 9 9 9 8 7 6 5 6 6 5 5 5 6
6 6 7 9 10 11 12 14 14 15 16 16 16 17 18 18 18 18 19 19 19 20 19 19 19 19 18 18 18 18 18 18 19 19 19 19 18 18 18 18 19 19 19 20 20 21 21 21 20 20 20 19 19 18 18 18 17 16 16 15 15 14 14 13 12 11 10 10 9 8 8 8 8 8 7 7 6 5 5 5 5 5 5 5 6
5 6 7 8 9 10 12 13 14 14 15 15 15 17 17 18 18 18 18 18 19 19 19 19 19 18 18 18 18 18 18 18 18 19 19 18 18 17 17 18 18 18 18 19 19 19 20 20 20 20 20 19 19 18 18 17 17 16 15 14 14 13 12 12 11 11 10 9 8 8 7 7 7 7 6 6 5 5 4 4 5 5 4 4 5
4 5 6 7 8 9 11 13 13 14 14 14 15 16 17 17 18 18 18 18 19 19 19 19 18 18 18 18 18 17 17 17 18 18 18 18 18 17 17 17 17 17 17 18 18 18 19 19 19 19 20 20 19 18 18 17 17 16 15 14 14 13 12 11 10 10 9 8 8 7 7 6 6 5 5 5 4 4 4 4 4 5 5 4 4
4 5 6 6 7 9 11 12 12 13 13 13 14 15 16 17 18 18 18 18 19 19 19 19 19 18 18 18 17 17 17 17 17 17 17 17 17 17 17 16 16 16 17 17 17 18 18 18 18 19 19 19 19 18 18 17 17 16 15 14 13 13 12 11 10 9 8 8 7 7 6 5 5 5 4 4 3 4 4 4 4 5 5 4 5
3 4 5 6 7 8 10 11 11 12 12 13 13 14 15 16 17 17 18 18 19 19 19 19 19 18 18 18 17 17 16 16 16 16 16 16 16 16 16 16 16 16 16 16 16 17 17 18 18 18 18 18 18 18 18 17 17 17 16 15 14 13 12 12 10 9 8 7 7 6 5 5 5 4 3 3 3 3 3 4 4 4 4 4 4
3 3 4 5 6 8 9 10 11 11 12 12 13 13 14 15 16 16 17 18 19 19 19 19 19 19 18 18 17 17 16 16 16 16 16 16 15 15 15 16 16 16 16 16 16 16 17 17 17 17 17 17 18 17 17 17 17 17 17 16 15 14 13 12 11 9 8 7 6 6 5 4 4 3 3 3 2 2 3 3 3 3 3 4 4
3 3 3 5 6 7 8 9 10 10 11 11 12 13 13 14 15 16 16 17 18 18 19 19 19 19 18 18 18 17 17 16 16 16 16 15 14 14 14 15 15 16 16 16 16 16 16 16 16 16 16 17 17 17 16 16 16 17 17 16 16 15 14 13 12 11 9 8 7 6 5 4 4 3 3 2 2 1 2 2 3 3 3 3 4
3 2 3 4 5 7 8 8 9 10 10 11 11 12 12 13 14 15 15 16 17 18 18 18 18 18 18 18 18 17 17 17 16 16 16 15 14 14 14 14 14 15 15 15 15 15 15 16 15 15 16 16 16 16 16 16 16 16 17 17 17 16 14 13 12 12 11 10 8 7 6 5 4 4 4 4 3 1 1 2 3 2 2 3 3
3 2 3 4 5 6 7 8 9 9 9 10 10 11 11 12 13 14 15 15 16 17 18 18 18 18 18 18 18 18 17 17 17 16 16 15 14 14 13 13 13 14 14 14 15 15 15 16 16 15 15 15 16 16 16 15 15 16 16 16 17 16 15 14 13 12 11 10 9 8 7 6 5 5 5 6 5 4 3 4 3 3 2 2 2
3 2 3 4 5 6 7 8 8 8 9 9 10 10 11 12 12 13 14 14 15 16 17 17 17 17 18 18 18 18 17 17 17 16 16 15 14 14 13 13 13 13 13 13 14 14 14 15 15 15 15 15 16 16 16 15 15 15 15 16 16 16 15 14 14 13 12 11 10 8 7 5 4 4 4 5 6 6 5 5 4 4 3 2 2
3 2 2 3 4 5 6 7 8 8 8 9 9 10 10 11 12 12 13 14 14 15 16 17 17 17 17 17 17 17 17 17 17 17 16 15 15 14 13 13 13 12 12 12 13 13 14 14 14 15 15 15 16 16 16 15 15 15 15 16 16 15 14 14 14 14 13 12 11 9 8 5 3 2 3 3 4 5 5 6 6 5 4 3 3
3 2 2 3 4 5 6 7 7 7 8 8 9 9 10 10 11 12 12 13 14 15 16 17 17 17 17 16 17 17 17 17 17 17 17 16 15 14 14 13 13 12 12 12 12 13 13 13 13 14 14 14 15 15 16 15 15 15 15 15 15 14 14 14 15 14 13 12 12 11 9 7 4 2 1 1 2 3 4 5 6 6 5 4 4
3 2 1 2 3 5 6 6 7 7 7 8 8 9 10 10 11 12 12 13 14 14 15 16 16 16 16 16 16 17 17 17 17 17 17 17 16 15 14 14 13 13 12 12 12 12 13 13 13 13 13 14 14 14 15 15 15 14 14 14 14 15 15 14 14 14 14 13 12 12 11 9 6 3 1 1 1 2 3 4 6 6 6 5 5
4 2 1 2 3 4 5 6 6 7 7 7 8 8 9 10 11 11 12 12 13 14 15 16 16 16 16 16 16 16 16 17 17 17 18 17 16 16 15 14 14 13 13 12 12 12 12 12 12 13 13 13 13 13 14 14 14 14 14 14 14 14 14 15 15 15 14 14 13 13 12 10 7 4 2 1 0 1 2 4 5 6 6 6 6
4 3 2 2 3 3 4 5 6 6 7 7 7 8 8 9 10 11 11 12 13 14 15 15 15 16 16 16 16 16 16 16 17 17 17 17 17 16 16 15 14 13 13 12 12 11 11 11 12 12 12 12 12 12 13 13 13 13 13 13 13 14 14 15 15 15 15 15 14 14 13 11 8 5 3 1 1 2 2 3 5 6 7 7 7
4 3 2 2 2 3 4 5 6 6 7 7 7 8 8 9 9 10 11 12 13 14 14 15 15 16 16 16 16 16 16 16 16 17 17 17 17 17 16 16 15 14 13 12 12 12 11 11 12 12 12 12 12 11 12 12 13 13 13 13 13 13 14 14 15 15 15 15 14 14 13 11 8 5 4 3 3 3 3 3 4 6 7 7 7
5 4 3 2 2 2 3 4 5 6 7 7 7 8 9 9 9 10 11 12 13 14 14 15 15 16 16 16 16 16 16 16 16 16 17 17 17 17 17 16 15 14 13 13 12 12 12 12 12 11 11 12 11 11 11 12 12 12 12 12 12 12 13 14 14 15 15 15 14 13 13 12 8 5 4 4 4 4 4 4 4 5 6 6 7
6 5 4 3 2 2 2 3 4 5 7 7 8 8 9 9 10 10 11 12 13 14 14 15 15 15 16 16 16 16 16 16 16 16 16 16 16 16 16 16 15 15 14 13 13 12 12 12 12 11 11 11 11 11 11 11 11 11 12 12 12 12 13 13 14 14 15 15 14 13 13 12 9 6 5 5 4 4 5 5 5 6 6 6 7
7 6 5 4 3 3 3 3 4 5 6 7 8 8 9 9 10 10 11 11 12 13 14 14 15 15 15 16 16 16 17 17 17 17 17 17 16 16 16 16 15 15 14 13 13 12 12 12 12 12 11 11 11 11 11 10 11 11 11 11 11 11 11 12 13 13 14 14 14 13 13 12 11 7 5 5 4 4 4 5 6 6 6 6 7
8 7 6 5 5 4 4 4 4 5 6 7 8 8 9 10 10 10 11 12 12 13 13 14 14 15 15 15 16 16 17 17 17 18 17 17 17 16 16 16 16 15 15 14 13 13 13 12 12 12 12 11 11 11 11 11 11 11 10 10 10 10 10 11 12 13 13 14 14 14 13 13 11 8 5 5 4 4 4 4 5 5 6 6 6
9 8 7 7 6 6 5 5 5 5 6 7 8 8 9 10 11 11 11 12 13 13 13 13 14 14 15 15 16 16 17 17 18 18 18 18 17 17 17 16 16 16 16 15 14 14 13 13 13 13 12 12 11 11 11 11 11 11 10 10 9 10 10 11 11 12 12 13 14 13 13 12 12 10 7 5 4 3 4 4 4 5 6 6 6
10 9 9 8 8 7 6 6 6 6 7 7 8 8 9 10 11 11 12 12 12 13 13 13 14 14 15 15 16 17 17 18 18 18 18 17 17 17 17 16 16 16 16 15 14 14 14 14 13 13 13 12 12 11 11 11 10 11 10 10 9 9 10 10 10 11 11 12 13 13 13 12 11 10 8 6 3 3 3 3 4 4 5 6 6
10 10 10 9 9 8 8 7 7 7 7 8 8 9 9 9 10 11 12 12 12 12 13 13 13 14 15 15 16 17 18 18 18 18 17 17 17 17 17 16 16 16 16 15 15 15 14 14 14 13 13 13 12 12 11 10 10 10 10 10 10 9 9 9 10 10 10 11 12 12 13 12 11 10 9 6 4 2 2 3 3 3 4 5 5
11 11 10 10 10 9 9 9 8 8 8 8 9 9 9 10 10 11 12 13 13 13 13 13 14 14 15 15 16 17 17 18 18 17 16 16 16 16 16 16 16 16 15 15 14 14 14 14 13 13 13 12 12 12 11 11 10 9 9 10 9 9 9 9 8 9 9 10 10 11 12 12 11 10 9 8 5 3 2 3 3 3 3 4 4
11 11 11 11 10 10 10 10 9 9 9 10 10 10 10 10 11 12 12 12 12 13 13 14 14 14 15 15 16 17 17 17 17 16 16 16 16 16 15 15 15 15 15 14 14 14 14 14 13 13 12 12 12 12 11 11 10 10 9 9 9 9 8 8 8 8 9 9 9 10 11 11 11 11 10 9 7 5 3 2 3 3 3 3 3
11 11 11 11 11 11 11 11 10 10 10 10 11 11 11 11 12 12 12 12 13 13 13 14 14 14 14 15 15 16 17 17 16 16 16 15 15 15 14 14 14 14 14 14 14 14 14 13 13 13 12 12 12 12 11 11 10 10 9 9 9 9 8 8 7 8 8 8 9 9 10 10 10 10 10 10 9 7 5 2 2 2 2 2 2
10 10 11 11 11 11 11 11 11 11 11 11 11 12 12 12 13 13 13 13 13 13 14 14 14 14 14 14 14 15 16 16 16 16 15 15 14 14 14 13 13 13 14 14 14 14 13 13 13 13 12 12 11 11 11 10 10 10 10 9 9 8 8 8 7 7 7 7 8 9 9 10 10 10 10 9 9 9 7 4 2 2 2 2 2
10 10 10 10 11 11 11 12 12 12 12 12 12 12 13 13 13 13 13 13 13 13 14 14 13 13 13 13 14 15 16 16 16 15 15 14 14 14 13 13 13 13 13 14 14 14 14 14 13 13 12 12 11 11 11 10 10 10 10 9 8 8 8 8 7 6 6 7 7 8 8 9 9 10 10 9 9 9 8 6 4 2 1 1 1
11 11 11 11 11 11 11 12 12 12 12 12 12 13 13 13 13 13 13 14 14 14 14 13 13 12 12 13 14 15 16 16 15 14 14 14 13 13 13 13 13 13 14 14 14 14 14 14 14 13 13 12 12 11 11 10 10 9 9 9 8 8 8 8 7 6 6 6 6 7 7 8 8 9 9 9 9 9 9 8 6 4 2 1 1
12 12 12 12 12 12 11 11 11 12 12 12 13 13 13 13 13 13 13 14 14 14 13 13 12 12 13 14 15 15 15 15 14 13 13 13 13 13 13 14 14 14 14 15 15 15 15 15 14 14 13 12 12 11 11 10 10 9 9 9 8 8 7 7 7 6 6 5 6 6 7 7 7 7 8 9 9 9 9 9 8 7 5 3 1
13 12 13 13 13 12 12 12 12 12 12 13 13 13 12 12 13 13 14 14 14 14 13 13 13 14 14 14 15 15 15 14 13 12 12 13 13 14 14 14 14 15 15 16 16 16 16 15 15 14 13 12 12 11 11 10 9 9 8 8 8 7 7 6 6 6 6 5 5 5 6 6 7 7 7 8 8 8 9 9 8 8 7 6 4
14 14 13 14 13 13 13 12 12 13 13 13 13 13 12 13 13 14 14 14 14 13 13 13 13 14 14 14 15 15 14 13 12 12 12 13 13 14 14 14 15 15 16 16 16 16 16 15 15 14 13 12 11 11 10 9 9 8 7 7 7 7 6 6 6 5 5 5 5 5 5 6 6 6 7 7 7 8 8 8 8 8 8 8 7
16 15 14 14 14 14 13 13 13 14 14 13 13 13 13 13 14 14 15 15 14 13 13 13 13 13 13 14 14 14 13 12 12 12 13 13 14 14 14 15 15 16 16 16 16 16 15 15 15 14 12 11 11 10 10 9 8 8 7 7 6 6 6 6 5 5 5 5 5 4 5 5 6 6 6 6 7 7 7 7 8 8 8 8 8
17 16 16 15 14 14 14 14 14 14 14 14 14 13 13 14 14 15 15 14 14 13 13 13 13 13 13 13 13 13 12 12 12 13 13 13 14 14 14 15 15 15 15 15 15 15 15 15 14 13 12 11 10 9 9 8 8 7 7 6 6 5 5 5 5 5 4 4 4 4 4 4 5 5 5 6 6 7 7 7 7 7 8 8 8
17 17 16 15 15 15 15 15 15 15 15 15 14 14 14 15 15 15 15 15 14 14 13 14 14 13 12 12 12 12 12 12 12 13 13 13 13 14 14 15 15 15 15 15 15 14 14 13 13 12 12 11 10 8 8 8 7 7 7 6 6 5 5 5 5 4 4 4 4 4 4 4 4 5 5 5 5 6 7 7 7 7 7 7 8
17 17 16 16 15 15 16 16 16 16 16 15 15 15 16 16 15 15 15 15 14 14 14 14 13 13 12 12 12 12 12 12 12 13 13 13 13 14 14 14 15 15 15 15 14 14 13 12 12 11 11 10 9 8 8 7 7 7 6 6 6 5 5 5 4 4 4 4 3 4 4 4 4 4 4 5 5 6 6 7 7 7 7 7 7
17 17 16 16 16 15 15 16 16 16 16 16 16 16 16 16 16 15 14 14 15 15 14 14 13 13 12 12 12 12 12 12 13 13 13 13 13 14 14 14 14 15 15 14 14 13 12 11 11 10 10 10 9 9 8 7 7 6 6 6 6 5 5 5 4 4 4 4 3 3 3 3 3 3 4 4 4 5 6 6 7 7 7 7 7
17 17 16 16 15 15 16 16 16 16 16 16 16 16 16 16 16 15 14 14 15 15 14 14 13 13 12 12 12 12 12 13 13 13 13 13 13 14 14 14 14 15 15 14 14 13 12 11 10 10 10 9 9 9 8 8 7 6 6 6 5 5 5 5 4 4 4 4 4 3 2 2 2 2 3 3 4 4 5 5 6 7 7 7 7
17 16 16 16 15 15 16 16 17 17 16 16 16 16 16 16 15 15 14 14 14 15 14 14 14 13 13 12 12 12 12 13 13 13 13 13 14 14 14 14 14 15 15 15 14 13 12 10 9 9 9 8 8 8 8 8 7 7 6 6 5 5 5 5 4 3 3 4 4 3 2 2 2 2 2 2 3 3 4 4 5 6 6 7 7
17 17 16 16 16 16 16 16 16 16 16 16 16 16 16 16 15 15 14 14 15 15 15 14 14 13 13 12 12 12 12 13 13 13 14 14 14 14 14 14 14 14 14 14 14 13 11 10 9 8 8 8 7 8 8 8 7 7 6 6 5 4 4 4 4 3 3 3 3 3 2 2 1 1 1 1 2 2 3 3 4 5 5 6 6
18 17 17 17 16 16 16 15 15 15 16 16 16 16 15 15 15 15 15 15 15 15 15 14 14 13 12 12 12 12 13 13 13 14 14 14 14 14 14 14 14 14 14 14 13 12 11 10 9 8 7 7 7 7 7 7 7 6 6 5 4 4 3 3 3 3 3 3 3 3 2 2 1 1 1 1 1 1 2 2 3 3 4 5 5
17 17 17 17 16 16 15 15 15 15 16 16 16 15 15 15 14 14 15 15 15 14 14 14 13 13 12 12 12 13 13 14 14 14 15 14 14 14 14 14 14 14 14 13 12 11 10 9 8 8 7 6 6 7 7 7 6 6 5 5 4 3 3 3 3 3 3 3 3 3 2 2 2 2 2 1 1 1 1 1 2 2 3 3 4
Wind_Direction
358 360 3 5 6 7 7 8 8 9 11 13 13 14 15 15 15 16 16 16 17 18 19 20 22 24 26 27 28 28 30 31 31 32 34 36 37 37 38 39 41 43 45 47 49 49 50 51 53 56 57 57 57 59 59 60 61 62 63 65 66 69 75 81 85 89 91 93 93 94 96 97 97 101 105 105 105 104 100 94 89 86 83 79 77
355 359 2 4 6 7 7 8 8 10 12 12 13 15 16 16 16 17 17 17 18 19 20 21 22 24 27 28 28 29 30 31 32 32 34 35 37 38 39 39 40 42 45 47 49 49 49 49 50 50 51 52 52 53 53 54 55 56 58 60 63 66 71 76 81 86 87 87 89 93 95 97 97 100 103 103 102 100 96 89 84 83 82 78 74
353 359 2 4 5 7 8 8 9 10 12 13 14 16 17 17 17 18 18 18 19 21 21 22 23 25 27 29 28 29 30 31 31 32 33 35 36 38 39 40 40 42 44 47 49 49 48 48 48 48 48 49 50 50 51 51 52 53 55 59 62 65 69 75 82 85 85 83 85 88 91 93 94 98 104 103 99 96 92 87 84 82 81 77 72
353 358 2 4 5 7 8 9 9 11 12 14 15 17 18 17 18 18 18 19 20 22 22 22 23 25 27 29 29 29 29 30 30 32 33 34 35 37 39 40 41 41 43 46 48 48 48 47 47 47 47 48 48 49 50 51 53 54 56 58 61 64 68 74 80 83 83 82 83 85 87 87 86 91 100 103 100 96 91 88 84 80 77 74 68
352 357 1 4 5 6 8 9 10 12 13 14 16 18 18 18 18 18 19 20 21 22 23 23 24 25 26 28 29 29 29 29 30 31 32 33 34 36 38 39 40 41 42 43 45 47 47 47 46 46 46 47 47 48 49 50 52 54 56 58 60 64 67 71 74 78 79 79 80 82 83 83 79 81 92 98 97 96 91 86 81 76 73 69 63
351 355 0 3 5 6 8 9 11 13 14 15 16 17 18 18 18 18 19 20 22 23 24 24 24 25 25 26 28 29 28 29 29 29 30 31 32 34 36 37 39 40 41 42 42 44 46 46 46 47 47 47 46 47 48 49 50 51 52 54 57 62 65 66 68 71 73 75 76 76 76 76 74 75 82 90 92 93 92 87 81 76 71 65 58
349 354 359 3 5 6 8 9 11 14 15 16 17 17 18 18 18 18 19 21 22 23 24 24 25 25 25 26 27 28 28 28 28 28 29 30 31 32 34 36 37 39 41 42 42 42 43 45 46 47 47 47 46 46 47 48 49 49 50 51 54 58 61 61 63 66 69 71 72 73 72 72 71 71 76 83 86 89 92 90 84 76 69 61 54
347 353 359 3 5 6 8 9 11 14 16 17 18 18 19 18 17 17 18 20 22 23 24 25 25 25 25 26 26 27 28 27 27 27 28 29 30 31 32 34 36 37 40 41 41 42 42 43 44 45 46 46 45 45 44 45 46 47 48 49 51 55 57 59 60 62 65 67 68 68 68 66 66 66 69 73 76 76 80 82 76 67 61 55 49
344 351 358 2 5 6 7 8 10 14 16 18 19 20 20 19 18 18 19 20 21 22 23 24 25 25 25 26 26 26 27 27 26 26 27 28 30 30 31 33 35 36 38 39 40 41 42 41 41 41 41 41 43 43 42 42 42 44 45 46 48 51 54 56 57 57 60 62 61 61 61 57 56 58 60 62 65 67 69 70 67 60 57 54 48
342 350 356 1 5 6 6 8 10 13 16 18 19 21 21 20 20 20 20 20 20 21 22 24 25 25 24 25 25 25 27 27 26 26 28 29 30 31 32 33 34 35 36 37 37 38 39 39 39 38 37 37 39 40 41 40 40 41 42 43 45 47 50 52 53 53 55 56 55 55 55 52 48 51 54 55 60 65 65 66 64 57 53 52 46
341 349 355 1 4 5 6 8 10 13 16 18 20 21 22 22 22 21 20 20 20 21 22 23 24 24 24 24 24 25 25 25 26 26 28 30 31 32 33 33 34 35 35 35 35 35 35 36 36 37 36 36 37 37 38 39 40 40 41 42 43 44 45 46 47 48 50 51 50 48 48 46 44 47 49 49 55 60 57 59 58 51 45 43 39
338 347 355 2 4 4 5 7 10 13 15 18 20 21 22 23 23 22 21 21 20 21 22 23 24 23 23 24 24 25 24 23 24 25 25 28 30 31 32 33 34 35 34 34 33 33 33 33 34 35 36 35 35 36 36 37 38 39 40 40 41 41 41 41 41 42 43 44 44 41 38 36 36 42 42 38 46 55 54 51 51 47 45 41 35
334 344 354 1 3 3 5 7 10 13 15 18 20 21 21 22 23 23 23 21 21 21 22 22 23 23 23 24 24 24 23 21 22 23 23 25 27 29 30 32 33 34 33 32 32 32 31 31 32 34 34 34 35 36 36 36 37 38 38 39 39 37 36 36 35 37 38 39 38 35 30 24 23 28 26 21 36 57 58 53 48 45 46 43 37
326 340 352 359 1 3 5 7 10 13 15 17 19 20 21 21 22 22 22 22 21 22 22 22 22 23 23 23 23 23 22 20 19 21 22 22 24 26 28 29 30 32 32 31 30 31 31 31 32 32 33 33 34 35 35 36 37 37 36 37 37 35 33 31 30 31 32 33 33 30 25 19 17 17 10 11 36 66 70 65 56 49 51 52 45
316 334 348 356 359 2 5 8 10 13 15 17 18 19 20 20 20 20 20 20 21 21 21 22 22 23 23 23 23 23 22 19 18 19 19 20 22 24 26 27 28 29 30 29 29 29 30 31 31 31 32 31 31 31 33 34 35 35 35 35 35 33 31 27 25 26 27 28 29 26 22 18 18 19 12 13 41 78 87 75 60 54 61 60 50
301 323 342 351 356 1 5 8 10 12 14 15 16 18 18 19 19 19 19 19 19 20 20 21 21 22 22 22 23 23 21 19 17 17 17 19 21 22 24 26 27 28 29 28 28 28 29 30 30 30 31 30 29 28 29 31 32 33 32 32 31 30 28 25 24 24 23 24 26 25 25 25 26 32 37 38 51 98 108 73 50 48 59 53 44
283 307 333 346 353 359 4 7 9 10 11 12 14 16 17 17 18 18 18 19 19 19 19 19 20 21 22 22 22 22 21 19 18 17 17 18 20 20 21 23 25 26 27 27 27 27 27 28 28 29 29 29 27 26 27 28 29 30 30 30 29 26 25 24 23 22 21 20 23 27 34 39 40 42 48 53 55 81 95 48 23 15 31 39 38
267 292 324 342 352 359 5 6 7 8 9 10 12 14 15 15 16 17 17 18 19 19 18 18 18 19 20 21 22 21 21 19 18 18 18 18 18 19 19 20 23 25 26 26 26 25 26 27 27 27 27 27 25 25 25 25 26 28 28 29 28 25 22 23 24 22 20 19 22 28 36 43 47 47 49 53 53 51 51 40 21 12 21 25 20
258 280 316 340 353 0 5 5 5 6 8 9 12 13 13 13 14 15 17 18 19 18 17 17 18 18 18 19 20 21 20 19 19 18 18 17 17 17 17 18 20 21 23 24 24 24 24 24 25 25 25 25 25 24 24 24 25 26 26 27 27 23 21 23 24 23 21 20 21 25 29 33 40 44 45 49 50 48 45 38 30 30 33 29 20
252 273 312 341 355 1 4 5 4 5 6 8 12 12 12 12 13 15 17 18 18 18 17 16 17 17 16 17 18 19 19 19 18 17 17 16 16 16 16 16 17 17 19 20 22 21 21 20 21 22 22 23 23 23 23 23 24 25 25 25 24 22 21 24 25 25 24 23 22 23 25 23 23 28 31 38 42 41 38 33 30 31 34 41 48
244 264 310 345 360 3 3 4 4 4 4 7 11 12 12 12 13 15 17 17 18 18 17 16 16 17 16 16 17 17 18 18 17 17 16 16 16 15 15 15 15 15 16 16 17 18 18 17 17 18 19 20 21 21 22 22 23 24 24 24 22 21 22 24 25 25 24 24 24 23 22 21 18 6 351 1 23 30 31 29 28 30 36 50 59
238 251 300 345 358 1 2 2 2 1 2 6 11 12 12 12 13 14 15 17 18 18 17 16 16 16 15 15 15 15 16 16 16 16 16 16 15 15 15 14 13 13 14 14 14 15 15 14 13 14 15 17 19 20 20 21 21 22 23 23 22 22 22 23 24 24 24 24 24 22 19 18 16 7 340 306 335 25 31 30 31 34 42 57 66
231 237 273 328 347 356 359 360 0 359 -0 3 7 9 10 11 11 11 12 14 16 17 16 15 16 16 16 15 15 14 14 15 15 15 16 16 15 14 14 13 12 11 12 12 11 11 11 10 10 10 12 14 16 17 18 19 20 21 22 22 22 22 22 22 23 23 24 24 23 22 18 15 14 16 10 336 203 67 39 31 36 42 47 58 67
225 231 258 304 334 350 357 1 1 1 2 3 4 6 8 9 10 9 10 11 13 14 15 15 15 16 16 16 15 15 14 14 14 15 16 16 16 14 13 12 11 10 10 11 9 7 7 7 6 7 9 11 13 15 17 17 18 19 19 20 21 21 21 21 22 23 24 23 22 21 19 16 16 23 31 48 101 91 51 37 46 54 56 60 64
221 229 248 276 312 345 358 3 4 4 3 3 4 6 7 7 7 7 8 9 11 12 12 13 14 15 16 16 16 15 14 14 15 15 15 15 15 14 13 12 11 10 9 9 8 7 6 5 4 5 7 8 9 12 15 16 17 17 17 18 19 20 20 20 21 23 24 22 20 20 20 20 21 31 53 73 87 86 75 67 63 63 64 65 65
221 227 237 252 284 331 351 358 1 3 2 1 3 5 5 5 5 5 5 7 9 10 10 11 12 13 14 15 15 14 13 13 13 13 14 13 13 12 11 11 11 10 8 7 7 6 5 4 3 2 3 5 7 9 12 14 15 15 16 16 17 18 19 19 21 22 23 22 21 20 20 22 26 42 70 81 87 93 92 87 76 69 69 70 67
221 224 228 236 257 291 321 341 352 357 357 358 360 1 1 1 2 2 2 4 6 7 7 8 9 11 12 12 12 12 12 12 11 11 11 10 9 8 8 8 9 8 7 5 3 3 3 3 3 2 1 2 4 6 8 10 11 13 14 14 15 16 17 18 20 21 22 22 23 22 22 24 30 46 67 78 91 106 103 93 84 77 72 68 65
222 223 225 232 248 268 294 320 336 345 351 355 356 354 353 354 356 358 358 359 1 3 4 5 6 7 9 9 8 9 9 9 9 8 7 6 5 4 4 5 6 6 6 4 2 1 1 1 2 2 1 1 2 3 5 6 8 10 11 12 13 14 16 18 20 21 21 22 25 25 25 26 32 43 62 76 87 103 108 97 86 81 75 68 64
223 224 226 234 246 260 280 301 315 328 341 347 349 348 347 348 350 352 353 353 355 357 359 1 2 3 4 5 5 6 6 6 6 5 4 3 2 2 3 3 3 4 4 3 1 1 1 1 1 2 2 2 2 2 3 5 7 8 8 9 11 13 14 16 18 19 20 21 25 26 26 27 32 40 58 75 82 97 112 105 91 85 81 73 66
224 225 228 236 245 255 270 285 298 311 325 333 338 341 344 346 347 348 349 351 353 354 355 357 359 359 360 0 1 2 3 3 2 2 2 2 2 2 3 3 2 2 1 0 1 3 3 4 4 3 3 4 4 2 3 5 6 7 7 7 8 10 11 13 15 18 19 21 24 26 28 29 32 37 48 62 77 97 112 109 97 90 86 77 70
226 228 231 237 244 251 263 275 287 300 311 320 327 332 337 341 344 346 347 348 351 353 354 355 356 356 356 356 357 359 0 0 1 -0 359 359 1 2 2 2 1 0 358 358 1 4 4 4 5 4 3 4 4 3 3 4 6 7 7 7 8 8 10 10 11 13 17 20 23 26 28 30 31 35 41 49 66 97 115 114 99 89 88 84 77
229 231 234 238 242 250 261 270 279 290 299 309 317 322 326 331 336 340 341 342 346 348 349 351 351 351 352 353 354 355 357 358 358 358 357 358 0 2 1 359 359 358 357 358 2 4 3 3 4 3 3 4 4 3 3 3 5 6 7 7 7 7 8 9 8 10 14 19 22 25 28 31 32 35 39 44 53 81 118 125 108 92 93 93 86
231 233 237 240 243 250 258 266 274 283 291 299 307 312 317 321 325 329 332 335 338 341 343 344 345 346 347 349 351 353 354 355 355 356 357 358 359 359 359 358 357 357 357 359 3 3 2 2 2 1 2 3 3 3 4 4 4 6 8 8 6 5 6 7 8 11 14 17 20 23 27 30 32 35 38 41 44 57 98 129 128 111 102 99 91
233 235 238 242 246 251 257 264 271 279 286 293 300 304 308 313 317 321 324 326 330 334 336 337 338 340 342 345 348 350 352 352 352 353 355 356 356 355 355 356 358 358 358 360 2 2 1 1 0 359 359 0 0 2 3 4 4 4 6 8 8 7 6 7 11 14 15 17 20 23 25 29 32 35 37 40 42 46 65 110 132 125 110 103 97
236 238 240 245 250 255 260 265 271 276 281 287 293 298 302 307 312 315 318 321 324 327 330 331 332 334 337 340 344 348 349 349 350 350 350 351 352 352 353 355 357 358 358 359 359 359 359 358 357 356 356 356 357 358 0 2 3 3 3 6 8 8 6 7 11 14 16 19 22 23 24 27 30 33 36 39 42 45 50 72 114 129 125 121 113
237 239 242 247 253 258 263 267 271 276 280 284 289 294 298 303 307 311 314 317 320 323 325 326 327 329 333 336 341 345 345 345 345 346 347 349 349 349 351 354 356 356 357 356 356 356 356 355 354 353 352 352 352 353 355 358 1 2 3 4 7 9 8 6 8 12 16 20 23 24 25 27 29 32 34 37 41 44 47 54 82 127 143 144 141
239 242 244 249 255 261 266 269 272 276 279 282 286 291 295 300 304 307 310 313 316 319 321 322 324 327 330 333 336 339 340 340 342 344 346 348 349 348 348 351 352 352 353 353 352 351 352 350 349 348 348 347 347 347 349 352 355 359 2 3 5 8 8 7 7 10 16 22 25 26 27 28 29 32 34 36 39 42 45 48 57 87 132 148 157
243 244 245 250 257 262 266 269 272 274 277 280 284 288 293 297 300 303 307 310 312 315 317 319 320 323 325 327 330 333 334 335 337 340 343 345 346 345 346 347 348 348 348 347 346 346 346 344 343 342 342 342 342 342 342 343 346 351 356 359 0 3 5 6 7 9 16 23 27 28 29 30 30 32 35 37 40 42 44 47 51 58 80 123 154
245 245 246 251 258 262 265 268 272 274 276 279 283 287 291 294 297 301 305 307 308 311 313 315 316 318 320 321 324 326 328 330 333 337 340 341 342 342 342 342 343 343 343 342 341 340 339 338 337 337 337 338 339 339 338 337 339 344 349 354 357 358 1 5 7 9 13 21 27 29 31 32 32 33 36 38 39 41 44 48 51 53 59 70 94
245 248 250 252 255 260 264 268 271 274 276 280 283 286 288 291 295 299 302 303 304 307 309 311 312 315 316 317 319 321 324 327 330 333 336 337 338 338 338 338 339 339 339 339 338 337 337 336 336 335 336 337 337 338 337 336 338 342 347 352 357 360 1 5 8 9 12 18 24 29 32 33 34 36 38 39 39 40 43 47 50 53 56 59 65
245 251 253 252 252 257 263 266 269 274 278 282 284 286 287 290 294 297 299 300 302 304 306 309 311 313 314 315 316 318 320 323 325 328 331 333 333 334 336 336 337 338 339 339 339 339 339 338 337 336 336 337 338 338 338 338 340 343 346 350 356 0 1 2 4 8 13 15 17 24 32 34 35 38 40 39 39 41 44 46 48 51 54 57 61
244 249 252 251 250 254 259 263 267 273 279 282 283 284 285 288 292 295 296 297 299 302 304 306 308 310 311 312 314 315 317 319 321 324 327 329 331 333 334 335 335 337 338 339 339 340 340 339 338 337 337 338 338 339 339 339 342 344 346 348 353 358 360 359 359 3 12 16 14 19 29 34 34 37 41 43 42 43 46 48 49 50 52 55 58
243 247 250 250 249 252 257 262 267 272 276 279 280 282 285 288 291 293 294 295 296 299 302 302 303 305 307 308 311 312 314 316 319 322 325 327 328 331 332 333 334 335 337 338 339 340 341 341 342 341 341 341 340 340 341 342 343 344 346 348 351 353 355 356 356 359 7 13 13 16 25 31 32 34 39 44 45 45 46 49 52 53 53 54 56
243 246 248 249 249 252 257 262 267 271 274 275 277 281 285 287 289 291 292 293 294 298 301 302 301 301 303 305 308 310 312 313 317 320 323 324 326 327 329 330 331 333 335 337 339 340 341 343 345 346 345 344 343 341 343 346 346 345 344 347 350 350 351 352 354 356 2 10 15 18 20 24 29 33 36 41 46 47 47 48 51 55 57 57 56
242 244 246 248 250 254 258 262 266 270 271 273 276 280 283 285 287 288 290 291 294 297 300 301 300 300 300 302 306 308 309 311 314 317 320 321 323 325 327 329 330 332 334 335 336 337 340 342 345 347 346 346 345 343 342 345 347 348 348 349 348 348 349 350 352 355 359 6 16 20 19 18 24 30 33 37 43 48 49 48 49 53 56 58 58
241 243 246 249 252 255 257 260 264 267 269 271 274 278 280 283 285 286 287 289 292 295 297 298 298 297 299 301 303 305 306 308 311 314 317 319 322 324 326 328 330 331 333 333 334 334 336 338 342 344 343 344 345 345 341 339 340 344 350 353 353 350 349 349 351 356 359 1 8 18 20 16 17 24 30 35 39 45 48 49 49 51 53 55 56
242 244 247 251 254 256 258 260 263 266 269 271 272 275 279 282 284 285 286 288 290 293 294 294 294 295 296 298 300 301 303 305 308 311 315 318 320 322 324 326 328 330 332 332 331 331 331 331 334 337 338 339 343 345 344 340 336 334 338 344 350 352 351 350 351 355 357 358 3 14 22 17 11 16 26 33 37 41 47 50 50 51 51 52 52
243 245 248 251 255 257 259 261 264 266 270 271 272 274 278 281 283 285 285 286 287 289 290 291 291 292 293 295 297 298 300 303 305 309 312 315 317 319 321 323 326 328 329 329 330 329 328 325 325 328 332 336 339 342 344 343 341 336 331 331 335 341 345 349 353 359 1 360 2 11 21 17 6 4 18 31 34 38 44 49 50 50 49 49 49
243 246 248 251 254 256 258 261 263 266 269 271 273 275 278 280 281 282 284 285 286 287 287 287 287 288 289 291 294 296 298 300 303 306 309 312 314 316 319 321 323 325 325 325 327 328 327 324 321 322 326 331 336 338 340 342 342 340 335 330 327 330 336 343 350 357 359 359 1 6 13 9 353 343 354 15 22 27 35 42 44 44 45 46 44
245 247 249 251 254 256 257 258 261 265 269 272 273 276 278 280 280 280 282 284 285 285 284 284 284 285 286 289 292 294 296 298 300 303 306 310 312 314 316 319 321 322 322 322 323 326 327 325 323 321 322 326 330 334 336 338 340 340 338 335 332 332 337 343 347 348 350 354 358 360 360 355 339 320 310 314 333 356 14 26 31 33 36 38 37
247 248 251 253 254 255 255 256 260 266 270 273 275 277 279 280 280 280 281 282 283 283 282 282 283 285 287 290 292 294 295 297 299 302 304 307 309 310 313 316 318 319 320 320 321 321 323 324 323 319 316 319 325 329 332 335 339 342 343 342 342 341 344 348 350 347 345 349 354 357 354 345 330 307 287 277 276 288 310 339 1 11 18 23 27